EW2786 Weather Reports


time (UTC)temp
F
wind
direction
speed
knots
gust
knots
rain 1hr
in
rain 24hr
in
rain mn
in
humidity
%
barometer
mb
20260505224040 75 233 7.0 13.9 0.00 0.05 0.05 24 882.7
20260505223532 75 252 7.0 13.9 0.00 0.05 0.05 26 882.7
20260505223026 75 234 7.0 18.2 0.00 0.05 0.05 26 882.7
20260505222522 75 252 7.0 18.2 0.00 0.05 0.05 26 882.7
20260505222015 74 221 7.8 19.1 0.00 0.05 0.05 26 882.7
20260505221509 74 238 8.7 19.1 0.00 0.05 0.05 26 882.8
20260505221003 74 257 9.6 21.7 0.00 0.05 0.05 26 882.8
20260505220457 75 307 8.7 21.7 0.00 0.05 0.05 27 882.9
20260505215448 75 231 7.8 20.9 0.00 0.05 0.05 26 882.9
20260505214946 76 257 7.8 18.2 0.00 0.05 0.05 26 883.0
20260505214445 76 261 9.6 18.2 0.00 0.05 0.05 26 883.0
20260505212946 75 254 10.4 20.0 0.00 0.05 0.05 24 883.2
20260505212445 75 222 10.4 19.1 0.00 0.05 0.05 25 883.3
20260505211944 76 234 8.7 19.1 0.00 0.05 0.05 24 883.2
20260505211443 76 254 7.8 17.4 0.00 0.05 0.05 26 883.2
20260505210942 76 237 7.0 20.0 0.00 0.05 0.05 24 883.3
20260505210443 76 303 6.1 20.0 0.00 0.05 0.05 30 883.3
20260505205942 76 223 7.0 20.9 0.00 0.05 0.05 27 883.3
20260505205443 75 329 7.8 20.9 0.00 0.05 0.05 26 883.4
20260505204941 76 231 7.8 18.2 0.00 0.05 0.05 27 883.3
20260505204440 75 277 7.8 18.2 0.00 0.05 0.05 30 883.3
20260505203940 76 228 7.8 21.7 0.00 0.05 0.05 28 883.4
20260505201927 75 220 6.1 12.2 0.00 0.05 0.05 31 883.4
20260505201428 76 215 5.2 13.9 0.00 0.05 0.05 30 883.4
20260505200928 76 250 6.1 13.9 0.00 0.05 0.05 32 883.5
20260505200429 75 240 6.1 13.9 0.00 0.05 0.05 30 883.5
20260505195430 75 267 6.1 13.9 0.00 0.05 0.05 32 883.5
20260505194929 75 240 6.1 15.6 0.00 0.05 0.05 32 883.6
20260505194428 74 158 7.0 15.6 0.00 0.05 0.05 32 883.7
20260505193927 74 219 7.8 18.2 0.00 0.05 0.05 34 883.8
20260505192927 75 232 7.0 13.0 0.00 0.05 0.05 34 884.0
20260505192424 74 204 7.0 13.0 0.00 0.05 0.05 33 884.0
20260505191924 74 194 7.0 14.8 0.00 0.05 0.05 35 884.1
20260505190923 73 202 9.6 17.4 0.00 0.05 0.05 36 884.3
20260505190426 73 214 7.0 17.4 0.00 0.05 0.05 36 884.1
20260505185924 73 270 6.1 14.8 0.00 0.05 0.05 39 884.3
20260505185425 72 232 7.0 14.8 0.00 0.05 0.05 35 884.3
20260505183920 73 272 6.1 13.9 0.00 0.05 0.05 39 884.6
20260505183420 73 218 6.1 13.9 0.00 0.05 0.05 40 884.7
20260505182921 72 184 7.8 13.9 0.00 0.05 0.05 42 884.6
20260505182421 72 226 7.0 17.4 0.00 0.05 0.05 42 884.7
20260505181918 71 246 6.1 17.4 0.00 0.05 0.05 43 884.6
20260505181418 71 248 6.1 12.2 0.00 0.05 0.05 45 884.7
20260505180919 69 216 4.3 12.2 0.00 0.05 0.05 47 884.9
20260505180418 68 196 1.7 4.3 0.00 0.05 0.05 57 884.9
20260505175917 67 132 1.7 4.3 0.00 0.05 0.05 57 884.8
20260505175418 66 84 1.7 4.3 0.00 0.05 0.05 60 884.9
20260505174410 65 81 0.9 4.3 0.00 0.05 0.05 64 884.9
20260505173404 64 89 1.7 3.5 0.00 0.05 0.05 68 885.1
20260505172905 63 91 0.9 3.5 0.00 0.05 0.05 67 885.2
20260505172405 63 102 0.9 2.6 0.00 0.05 0.05 68 885.3
20260505171903 63 344 0.9 2.6 0.00 0.05 0.05 69 885.3
20260505170904 62 68 0.9 4.3 0.00 0.05 0.05 70 885.3
20260505170403 62 62 0.9 4.3 0.00 0.05 0.05 71 885.2
20260505165900 62 52 0.9 3.5 0.00 0.05 0.05 72 885.2
20260505164901 62 132 0.9 1.7 0.00 0.05 0.05 74 885.3
20260505163857 62 87 0.0 2.6 0.00 0.05 0.05 75 885.3
20260505163400 61 280 0.0 0.0 0.00 0.05 0.05 76 885.3
20260505162855 61 13 0.0 0.0 0.00 0.05 0.05 77 885.4
20260505162355 60 53 0.0 0.0 0.00 0.05 0.05 77 885.5
20260505161855 60 359 0.0 0.0 0.00 0.05 0.05 80 885.4
20260505161349 60 359 0.0 0.0 0.00 0.05 0.05 80 885.5
20260505160843 60 359 0.0 0.0 0.00 0.05 0.05 81 885.5
20260505160342 60 359 0.0 0.0 0.00 0.05 0.05 81 885.5
20260505153256 58 359 0.9 2.6 0.00 0.05 0.05 83 885.3
20260505152751 58 346 0.9 1.7 0.00 0.05 0.05 84 885.3
20260505152245 58 54 0.9 1.7 0.00 0.05 0.05 85 885.1
20260505151739 58 6 0.0 1.7 0.00 0.05 0.05 85 885.3
20260505151232 57 6 0.9 1.7 0.00 0.05 0.05 86 885.2
20260505150726 57 7 0.9 2.6 0.00 0.05 0.05 86 885.3
20260505150221 57 335 0.9 2.6 0.00 0.05 0.05 87 885.3
20260505140614 56 307 0.9 3.5 0.00 0.05 0.05 88 884.9
20260505140108 56 338 0.0 3.5 0.00 0.05 0.05 88 884.8
20260505124548 56 148 1.7 5.2 0.00 0.04 0.04 85 884.4
20260505124048 56 106 1.7 5.2 0.00 0.04 0.04 84 884.5
20260505123550 56 169 1.7 5.2 0.00 0.04 0.04 84 884.4
20260505123047 56 168 1.7 5.2 0.00 0.04 0.04 83 884.3
20260505121542 56 146 2.6 6.1 0.00 0.04 0.04 82 883.9
20260505120544 56 180 1.7 3.5 0.00 0.04 0.04 84 883.7
20260505120046 56 163 1.7 6.1 0.00 0.04 0.04 84 883.8
20260505115544 56 119 2.6 6.1 0.01 0.04 0.04 84 883.7
20260505114546 55 129 1.7 5.2 0.01 0.04 0.04 87 884.1
20260505114040 55 124 1.7 4.3 0.01 0.04 0.04 88 884.4
20260505113540 55 133 0.9 3.5 0.01 0.04 0.04 90 884.5
20260505113040 55 135 0.0 3.5 0.01 0.04 0.04 91 884.6
20260505112538 55 6 0.0 0.9 0.01 0.04 0.04 91 884.6
20260505112041 55 6 0.0 1.7 0.02 0.04 0.04 91 884.5
20260505111539 55 6 0.0 1.7 0.02 0.04 0.04 91 884.6
20260505111039 55 6 0.0 2.6 0.02 0.04 0.04 92 884.6
20260505110540 56 18 0.9 2.6 0.02 0.04 0.04 91 884.6
20260505102034 56 87 0.9 3.5 0.02 0.02 0.02 90 885.4
20260505101029 56 259 0.0 1.7 0.02 0.02 0.02 90 885.4
20260505100528 56 259 0.0 1.7 0.02 0.02 0.02 89 885.6
20260505095523 56 248 0.9 5.2 0.02 0.02 0.02 89 886.0
20260505095022 56 297 0.9 5.2 0.01 0.01 0.01 89 885.9
20260505094522 56 243 0.0 2.6 0.01 0.01 0.01 88 886.1
20260505094021 56 248 0.0 3.5 0.01 0.01 0.01 88 886.3
20260505093016 56 253 0.9 3.5 0.01 0.01 0.01 87 886.4
20260505092514 56 255 0.9 3.5 0.01 0.01 0.01 87 886.5
20260505091515 56 251 0.9 3.5 0.00 0.00 0.00 86 886.5
20260505091012 57 276 0.9 3.5 0.00 0.00 0.00 86 886.6
20260505090512 57 304 0.0 3.5 0.00 0.00 0.00 86 886.6
20260505090010 57 250 0.9 3.5 0.00 0.00 0.00 85 886.8
20260505085511 57 283 1.7 4.3 0.00 0.00 0.00 85 886.8
20260505085006 57 340 1.7 6.1 0.00 0.00 0.00 84 886.9
20260505084506 58 242 1.7 7.0 0.00 0.00 0.00 82 887.0
20260505084004 58 240 1.7 9.6 0.00 0.00 0.00 80 887.1
20260505083507 58 259 2.6 9.6 0.00 0.00 0.00 79 887.1
20260505082505 59 294 1.7 7.0 0.00 0.00 0.00 74 886.8
20260505081959 60 307 1.7 7.0 0.00 0.00 0.00 72 886.7
20260505081454 60 307 1.7 7.0 0.00 0.00 0.00 69 886.8
20260505080948 60 283 1.7 6.1 0.00 0.00 0.00 68 887.0
20260505075430 61 233 1.7 7.8 0.00 0.00 0.00 65 886.9
20260505074924 61 264 2.6 8.7 0.00 0.00 0.00 64 886.9
20260505074420 61 231 2.6 8.7 0.00 0.00 0.00 64 886.9
20260505073920 61 247 2.6 10.4 0.00 0.00 0.00 63 886.8
20260505073419 62 281 2.6 10.4 0.00 0.00 0.00 63 886.8
20260505072918 62 288 2.6 7.0 0.00 0.00 0.00 63 886.8
20260505071918 62 286 1.7 7.8 0.00 0.00 0.00 62 886.9
20260505071421 62 257 1.7 7.0 0.00 0.00 0.00 62 886.8
20260505070916 62 291 1.7 7.8 0.00 0.00 0.00 61 886.9
20260505070419 62 269 1.7 10.4 0.00 0.00 0.00 61 886.9
20260505065916 62 245 1.7 10.4 0.00 0.00 0.00 60 887.0
20260505064416 62 236 1.7 6.1 0.00 0.00 0.00 58 886.9
20260505063916 62 278 1.7 6.1 0.00 0.00 0.00 56 886.9
20260505063415 62 254 0.9 5.2 0.00 0.00 0.00 55 886.9
20260505062416 62 271 0.9 4.3 0.00 0.00 0.00 53 887.0
20260505061909 63 267 0.9 8.7 0.00 0.00 0.00 53 887.1
20260505061403 63 253 0.9 8.7 0.00 0.00 0.00 53 887.2
20260505060857 63 265 0.9 5.2 0.00 0.00 0.00 53 887.1
20260505060351 63 231 1.7 7.0 0.00 0.00 0.00 54 886.9
20260505055846 63 262 2.6 8.7 0.00 0.00 0.00 54 886.9
20260505055340 63 276 2.6 8.7 0.00 0.00 0.00 52 886.8
20260505054833 63 246 1.7 7.0 0.00 0.00 0.00 51 886.7
20260505054327 63 277 0.9 7.0 0.00 0.00 0.00 50 886.6
20260505053821 63 219 0.9 4.3 0.00 0.00 0.00 48 886.7
20260505052809 63 242 0.0 2.6 0.00 0.00 0.00 47 886.9
20260505052304 63 270 0.0 1.7 0.00 0.00 0.00 46 887.1
20260505051758 62 257 0.0 1.7 0.00 0.00 0.00 46 887.2
20260505051252 62 264 0.0 1.7 0.00 0.00 0.00 46 887.1
20260505050745 63 271 0.0 1.7 0.00 0.00 0.00 46 887.0
20260505050240 63 278 0.0 2.6 0.00 0.00 0.00 45 887.0
20260505041652 63 285 2.6 8.7 0.00 0.00 0.00 44 886.3
20260505041151 63 248 2.6 10.4 0.00 0.00 0.00 43 886.4
20260505040654 63 251 3.5 10.4 0.00 0.00 0.00 43 886.4
20260505040152 63 251 2.6 8.7 0.00 0.00 0.00 42 886.4
20260505035650 63 231 2.6 12.2 0.00 0.00 0.00 42 886.5
20260505034653 64 302 2.6 9.6 0.00 0.00 0.00 41 886.3
20260505034152 64 320 2.6 9.6 0.00 0.00 0.00 41 886.4
20260505033649 64 259 2.6 8.7 0.00 0.00 0.00 41 886.4
20260505033149 64 316 2.6 10.4 0.00 0.00 0.00 41 886.3
20260505032648 64 240 1.7 10.4 0.00 0.00 0.00 41 886.3
20260505032150 64 224 1.7 8.7 0.00 0.00 0.00 41 886.2
20260505031648 64 148 2.6 9.6 0.00 0.00 0.00 40 886.1
20260505031146 64 250 2.6 11.3 0.00 0.00 0.00 40 886.2
20260505030647 64 318 2.6 11.3 0.00 0.00 0.00 39 886.1
20260505030145 65 231 2.6 12.2 0.00 0.00 0.00 38 886.1
20260505025143 65 277 2.6 10.4 0.00 0.00 0.00 38 886.0
20260505024643 65 216 2.6 10.4 0.00 0.00 0.00 38 886.0
20260505024142 66 309 2.6 8.7 0.00 0.00 0.00 38 886.0
20260505023142 66 173 2.6 10.4 0.00 0.00 0.00 38 886.0
20260505022639 66 228 2.6 10.4 0.00 0.00 0.00 37 886.0
20260505022141 66 257 3.5 11.3 0.00 0.00 0.00 37 885.7
20260505021639 67 280 3.5 13.0 0.00 0.00 0.00 37 885.6
20260505020636 67 265 2.6 9.6 0.00 0.00 0.00 36 885.6
20260505020137 68 317 2.6 11.3 0.00 0.00 0.00 36 885.7
20260505015636 68 333 2.6 13.0 0.00 0.00 0.00 35 885.9
20260505015137 69 296 2.6 13.0 0.00 0.00 0.00 34 885.8
20260505014633 69 228 2.6 9.6 0.00 0.00 0.00 33 885.7
20260505013133 71 200 2.6 8.7 0.00 0.00 0.00 31 885.5
20260505012633 71 252 1.7 7.0 0.00 0.00 0.00 29 885.3
20260505011632 72 267 0.9 7.8 0.00 0.00 0.00 28 885.4
20260505011132 72 259 0.9 7.8 0.00 0.00 0.00 27 885.3
20260505010634 72 293 1.7 7.0 0.00 0.00 0.00 26 885.5
20260505010127 73 269 0.9 5.2 0.00 0.00 0.00 26 885.5
20260505005628 73 300 1.7 7.0 0.00 0.00 0.00 26 885.4
20260505005129 73 307 1.7 7.0 0.00 0.00 0.00 26 885.6
20260505004627 74 229 1.7 6.1 0.00 0.00 0.00 25 885.5
20260505004126 74 322 1.7 7.8 0.00 0.00 0.00 24 885.6
20260505003124 74 300 1.7 8.7 0.00 0.00 0.00 23 885.7
20260505002625 75 291 1.7 8.7 0.00 0.00 0.00 23 885.6
20260505001623 75 301 3.5 7.8 0.00 0.00 0.00 22 885.4
20260505000626 76 306 3.5 9.6 0.00 0.00 0.00 22 885.4
20260505000119 76 295 3.5 10.4 0.00 0.00 0.00 22 885.3
20260504235615 77 298 3.5 12.2 0.00 0.00 0.00 21 885.2
20260504235108 77 290 3.5 12.2 0.00 0.00 0.00 21 885.2
20260504234603 78 288 2.6 10.4 0.00 0.00 0.00 20 885.1
20260504234056 78 262 2.6 7.0 0.00 0.00 0.00 22 885.1
20260504233550 77 293 2.6 7.0 0.00 0.00 0.00 22 885.1
20260504232537 77 259 2.6 9.6 0.00 0.00 0.00 24 885.2
20260504232033 77 353 2.6 9.6 0.00 0.00 0.00 23 885.2
20260504231528 78 246 2.6 13.0 0.00 0.00 0.00 23 885.2
20260504230526 77 325 4.3 13.0 0.00 0.00 0.00 24 885.2
20260504230023 77 340 4.3 13.0 0.00 0.00 0.00 24 885.1
20260504225523 77 310 3.5 13.0 0.00 0.00 0.00 24 885.3
20260504225023 77 11 4.3 13.0 0.00 0.00 0.00 25 885.1
20260504224525 77 278 5.2 13.0 0.00 0.00 0.00 25 885.1